Location: Ciochowice
(50.4289°N, 18.5217°E)
Time: 00:07:43
(UTC+01:00)

ISS - Visible Passes

Search period start: 25 March 2019 00:00
Search period end: 04 April 2019 01:00
Orbit: 408 x 411 km, 51.6° (Epoch: 24 March)

Date Brightness Start Highest point End Pass type
(mag) Time Alt. Az. Time Alt. Az. Time Alt. Az.
25 Mar -3.0 18:42:32 10° SW 18:45:35 34° SSE 18:48:38 10° E visible
25 Mar -3.5 20:18:42 10° W 20:21:38 66° W 20:21:38 66° W visible
26 Mar -3.9 19:28:03 10° WSW 19:31:20 82° SSE 19:33:13 24° ENE visible
26 Mar -1.3 21:04:43 10° W 21:05:59 21° WNW 21:05:59 21° WNW visible
27 Mar -3.7 18:37:26 10° WSW 18:40:42 61° SSE 18:43:58 10° ENE visible
27 Mar -3.7 20:14:00 10° W 20:17:19 69° N 20:17:27 68° NNE visible
28 Mar -3.7 19:23:16 10° W 19:26:35 75° N 19:28:52 19° ENE visible
28 Mar -1.7 20:59:58 10° WNW 21:01:37 27° WNW 21:01:37 27° WNW visible
29 Mar -3.8 20:09:15 10° W 20:12:33 72° N 20:12:58 62° ENE visible
30 Mar -3.6 19:18:30 10° W 19:21:48 69° N 19:24:16 17° E visible
30 Mar -2.1 20:55:09 10° WNW 20:57:01 31° W 20:57:01 31° W visible
31 Mar -3.9 21:04:24 10° WNW 21:07:44 88° S 21:08:18 58° ESE visible
01 Apr -3.7 20:13:39 10° WNW 20:16:59 77° N 20:19:35 15° E visible
01 Apr -2.1 21:50:20 10° W 21:52:20 29° WSW 21:52:20 29° WSW visible
02 Apr -3.5 20:59:31 10° WNW 21:02:47 57° SSW 21:03:36 41° SSE visible
03 Apr -3.8 20:08:44 10° WNW 20:12:03 78° SSW 20:14:53 13° ESE visible
03 Apr -1.7 21:45:42 10° W 21:47:39 20° SW 21:47:39 20° SW visible
